CW1663 Weather Reports


Display with metric or nautical units.
time (UTC)temp
F
wind
direction
speed
MPH
gust
MPH
rain 1hr
in
rain 24hr
in
rain mn
in
humidity
%
barometer
mb
20260507190304 52 135 1.0 3.0 0.00 0.00 0.00 81 1015.1
20260507185804 52 135 0.0 3.0 0.00 0.00 0.00 81 1015.1
20260507184804 53 135 0.0 2.0 0.00 0.00 0.00 80 1015.0
20260507184304 53 135 2.0 3.0 0.00 0.00 0.00 80 1015.0
20260507183304 53 140 2.0 7.0 0.00 0.00 0.00 79 1015.0
20260507182804 53 142 0.0 3.0 0.00 0.00 0.00 79 1015.0
20260507182306 53 143 2.0 3.0 0.00 0.00 0.00 79 1014.9
20260507181304 54 146 1.0 6.0 0.00 0.00 0.00 79 1015.0
20260507174304 54 116 1.0 6.0 0.00 0.00 0.00 77 1014.7
20260507173804 54 166 2.0 6.0 0.00 0.00 0.00 77 1014.7
20260507173304 54 165 1.0 3.0 0.00 0.00 0.00 78 1014.8
20260507172804 54 167 1.0 3.0 0.00 0.00 0.00 78 1014.8
20260507171804 54 115 3.0 7.0 0.00 0.00 0.00 78 1015.0
20260507164804 54 95 3.0 6.0 0.00 0.00 0.00 79 1015.0
20260507163804 54 96 2.0 6.0 0.00 0.00 0.00 79 1015.1
20260507163305 54 132 1.0 3.0 0.00 0.00 0.00 80 1015.1
20260507162804 54 132 3.0 5.0 0.00 0.00 0.00 79 1015.1
20260507162307 54 114 2.0 3.0 0.00 0.00 0.00 79 1015.1
20260507161304 54 133 1.0 3.0 0.00 0.00 0.00 80 1015.1
20260507160304 54 134 2.0 3.0 0.00 0.00 0.00 79 1015.1
20260507155804 54 139 2.0 3.0 0.00 0.00 0.00 79 1015.1
20260507153304 54 159 3.0 5.0 0.00 0.00 0.00 79 1015.2
20260507151804 54 185 1.0 3.0 0.00 0.00 0.00 79 1015.2
20260507151304 54 187 2.0 3.0 0.00 0.00 0.00 79 1015.2
20260507150804 53 190 2.0 3.0 0.00 0.00 0.00 79 1015.2
20260507150304 53 215 1.0 3.0 0.00 0.00 0.00 79 1015.3
20260507145306 53 215 1.0 3.0 0.00 0.00 0.00 79 1015.2
20260507142306 54 217 2.0 3.0 0.00 0.00 0.00 78 1015.4
20260507141803 54 157 0.0 2.0 0.00 0.00 0.00 78 1015.4
20260507141304 54 157 0.0 3.0 0.00 0.00 0.00 78 1015.5
20260507140805 54 157 1.0 3.0 0.00 0.00 0.00 78 1015.5
20260507140304 54 157 0.0 2.0 0.00 0.00 0.00 78 1015.5
20260507135804 53 157 0.0 2.0 0.00 0.00 0.00 78 1015.5
20260507135306 53 157 1.0 2.0 0.00 0.00 0.00 78 1015.6
20260507134304 53 157 1.0 3.0 0.00 0.00 0.00 78 1015.5
20260507133304 53 157 1.0 3.0 0.00 0.00 0.00 79 1015.5
20260507132307 53 146 1.0 2.0 0.00 0.00 0.00 79 1015.5
20260507131803 53 146 1.0 3.0 0.00 0.00 0.00 79 1015.5
20260507130804 53 142 0.0 0.0 0.00 0.00 0.00 80 1015.6
20260507130304 52 142 0.0 0.0 0.00 0.00 0.00 80 1015.6
20260507125804 52 142 0.0 1.0 0.00 0.00 0.00 79 1015.6
20260507125306 52 142 1.0 3.0 0.00 0.00 0.00 79 1015.7
20260507124804 52 142 2.0 3.0 0.00 0.00 0.00 79 1015.7
20260507124304 53 147 1.0 2.0 0.00 0.00 0.00 79 1015.7
20260507121304 53 151 2.0 3.0 0.00 0.00 0.00 75 1015.7
20260507120804 53 74 0.0 0.0 0.00 0.00 0.00 75 1015.7
20260507115307 53 42 0.0 1.0 0.00 0.00 0.00 74 1015.6
20260507114304 53 42 1.0 3.0 0.00 0.00 0.00 74 1015.5
20260507113804 53 42 1.0 3.0 0.00 0.00 0.00 73 1015.5
20260507110805 53 311 2.0 7.0 0.00 0.00 0.00 74 1015.7
20260507104804 53 325 3.0 7.0 0.00 0.00 0.00 72 1015.7
20260507104305 54 329 3.0 5.0 0.00 0.00 0.00 72 1015.7
20260507103304 54 240 1.0 3.0 0.00 0.00 0.00 71 1015.7
20260507093804 55 148 3.0 7.0 0.00 0.00 0.00 72 1015.7
20260507092306 54 154 2.0 8.0 0.00 0.00 0.00 73 1015.7
20260507091804 54 133 3.0 7.0 0.00 0.00 0.00 73 1015.7
20260507085804 54 140 3.0 6.0 0.00 0.00 0.00 74 1015.5
20260507085306 54 122 2.0 6.0 0.00 0.00 0.00 76 1015.7
20260507084804 54 123 2.0 7.0 0.00 0.00 0.00 76 1015.7
20260507084304 54 145 4.0 7.0 0.00 0.00 0.00 75 1015.6
20260507082804 53 342 1.0 6.0 0.00 0.00 0.00 78 1015.6
20260507081804 53 68 2.0 5.0 0.00 0.00 0.00 79 1015.5
20260507081304 53 75 2.0 5.0 0.00 0.00 0.00 80 1015.5
20260507080804 53 106 1.0 5.0 0.00 0.00 0.00 82 1015.5
20260507080304 52 78 2.0 3.0 0.00 0.00 0.00 83 1015.4
20260507075307 51 128 2.0 5.0 0.00 0.00 0.00 85 1015.4
20260507073804 50 97 2.0 3.0 0.00 0.00 0.00 88 1015.4
20260507073304 49 98 1.0 3.0 0.00 0.00 0.00 89 1015.3
20260507072803 49 97 1.0 6.0 0.00 0.00 0.00 89 1015.3
20260507072306 49 91 2.0 3.0 0.00 0.00 0.00 89 1015.3
20260507071304 48 76 1.0 2.0 0.00 0.00 0.00 90 1015.2
20260507070304 48 57 1.0 3.0 0.00 0.00 0.00 90 1015.2
20260507065804 48 55 1.0 3.0 0.00 0.00 0.00 90 1015.2
20260507065306 48 52 1.0 3.0 0.00 0.00 0.00 90 1015.2
20260507063804 47 48 0.0 2.0 0.00 0.00 0.00 90 1015.2
20260507062306 47 34 1.0 2.0 0.00 0.00 0.00 90 1015.0
20260507061305 47 34 0.0 2.0 0.00 0.00 0.00 90 1015.1
20260507060804 47 34 0.0 0.0 0.00 0.00 0.00 90 1015.1
20260507055804 47 34 0.0 1.0 0.00 0.00 0.00 90 1015.2
20260507055306 47 34 0.0 0.0 0.00 0.00 0.00 90 1015.0
20260507054803 47 34 0.0 1.0 0.00 0.00 0.00 90 1015.0
20260507054304 47 34 0.0 0.0 0.00 0.00 0.00 90 1014.9
20260507053304 47 34 1.0 2.0 0.00 0.00 0.00 90 1014.8
20260507052306 47 33 1.0 2.0 0.00 0.00 0.00 90 1014.8
20260507051804 47 33 0.0 1.0 0.00 0.00 0.00 90 1014.8
20260507051304 47 33 1.0 2.0 0.00 0.00 0.00 90 1014.8
20260507045306 47 34 0.0 1.0 0.00 0.00 0.00 90 1014.6
20260507044304 47 33 0.0 2.0 0.00 0.00 0.00 90 1014.6
20260507043804 47 34 1.0 2.0 0.00 0.00 0.00 90 1014.6
20260507042804 47 34 0.0 3.0 0.00 0.00 0.00 90 1014.5
20260507042306 47 47 0.0 3.0 0.00 0.00 0.00 89 1014.5
20260507041803 47 46 1.0 2.0 0.00 0.00 0.00 89 1014.5
20260507040304 47 46 0.0 2.0 0.00 0.00 0.00 89 1014.5
20260507034804 47 46 1.0 3.0 0.00 0.00 0.00 89 1014.5
20260507033804 47 51 1.0 3.0 0.00 0.00 0.00 89 1014.4
20260507032306 47 32 1.0 3.0 0.00 0.00 0.00 89 1014.4
20260507030304 47 34 0.0 0.0 0.00 0.00 0.00 89 1014.3
20260507025804 47 34 0.0 0.0 0.00 0.00 0.00 89 1014.3
20260507025306 47 34 0.0 1.0 0.00 0.00 0.00 89 1014.3
20260507022804 47 33 0.0 1.0 0.00 0.00 0.00 89 1014.2
20260507021804 47 33 1.0 2.0 0.00 0.00 0.00 89 1014.2
20260507020304 47 33 0.0 1.0 0.00 0.00 0.00 89 1014.1
20260507015804 47 33 1.0 3.0 0.00 0.00 0.00 89 1014.1
20260507015306 47 34 0.0 1.0 0.00 0.00 0.00 89 1014.2
20260507013304 47 34 0.0 2.0 0.00 0.00 0.00 89 1014.1
20260507012804 47 34 1.0 3.0 0.00 0.00 0.00 89 1014.1
20260507011804 47 40 1.0 3.0 0.00 0.00 0.00 89 1014.1
20260507005305 47 73 1.0 3.0 0.00 0.00 0.00 88 1014.1
20260507004804 47 74 1.0 3.0 0.00 0.00 0.00 88 1014.1
20260507003304 47 74 0.0 1.0 0.00 0.00 0.00 88 1014.2
20260507002804 47 74 1.0 2.0 0.00 0.00 0.00 88 1014.2
20260507001804 47 74 0.0 3.0 0.00 0.00 0.00 88 1014.3
20260506235804 48 76 1.0 2.0 0.00 0.00 0.00 87 1014.3
20260506235306 48 76 0.0 5.0 0.00 0.00 0.00 87 1014.3
20260506234804 48 46 1.0 2.0 0.00 0.00 0.00 87 1014.3
20260506233304 48 42 0.0 1.0 0.00 0.00 0.00 87 1014.2
20260506232804 48 42 1.0 2.0 0.00 0.00 0.00 87 1014.2
20260506232306 48 42 1.0 2.0 0.00 0.00 0.00 87 1014.1
20260506231304 48 42 0.0 0.0 0.00 0.00 0.00 87 1014.1
20260506230813 48 42 0.0 1.0 0.00 0.00 0.00 87 1014.1
20260506222306 48 42 0.0 1.0 0.00 0.00 0.00 85 1013.9
20260506221804 48 42 1.0 2.0 0.00 0.00 0.00 85 1013.9
20260506215804 49 42 0.0 2.0 0.00 0.00 0.00 85 1013.8
20260506214304 49 38 1.0 3.0 0.00 0.00 0.00 84 1013.7
20260506213804 49 38 1.0 3.0 0.00 0.00 0.00 84 1013.7
20260506212306 49 38 0.0 3.0 0.00 0.00 0.00 84 1013.7
20260506210804 49 30 0.0 0.0 0.00 0.00 0.00 84 1013.5
20260506210304 49 44 0.0 0.0 0.00 0.00 0.00 84 1013.5
20260506205804 49 42 0.0 0.0 0.00 0.00 0.00 84 1013.5
20260506202804 49 51 0.0 0.0 0.00 0.00 0.00 83 1013.2
20260506201804 49 57 2.0 3.0 0.00 0.00 0.00 83 1013.2
20260506201304 49 56 1.0 3.0 0.00 0.00 0.00 83 1013.1
20260506195306 49 57 2.0 3.0 0.00 0.00 0.00 82 1013.0
20260506194804 49 46 2.0 5.0 0.00 0.00 0.00 82 1013.0
20260506194304 49 46 2.0 3.0 0.00 0.00 0.00 81 1012.9
20260506193804 50 48 2.0 5.0 0.00 0.00 0.00 81 1012.9
20260506193304 50 33 2.0 5.0 0.00 0.00 0.00 80 1012.8
20260506192804 50 14 1.0 3.0 0.00 0.00 0.00 80 1012.8
20260506192305 50 18 2.0 5.0 0.00 0.00 0.00 80 1012.8
20260506191304 50 8 2.0 3.0 0.00 0.00 0.00 80 1012.7